Home   Weather   Pyatigorsk   Past weeks

Flag for Russia Past Weather in Pyatigorsk, Russia — Yesterday and Last 2 Weeks

Now
30 °F

Passing clouds.


Feels Like: 23 °F
Forecast: 26 / 35 °F
Wind: 8 mph from West

Location: Mineral'Nye Vody

Current Time: Dec 4, 2016 at 12:59:06 am

Latest Report: Dec 4, 2016 at 12:00 am


Visibility: N/A

Pressure: 30.04 "Hg (28.10 "Hg at 533m altitude)

Humidity: 86%

Dew Point: 27 °F

Location of PyatigorskLocation

Past Weather in Pyatigorsk — Graph

°F

Pyatigorsk Temperature Yesterday

Maximum temperature yesterday: 45 °F (at 12:00 pm)
Minimum temperature yesterday: 21 °F (at 3:00 am)
Average temperature yesterday: 32 °F

High & Low Weather Summary for the Past Weeks

 TemperatureHumidityPressure
High55 °F (Nov 27, 1:30 pm)100% (Nov 19, 1:00 am)30.74 "Hg (Nov 19, 1:00 am)
Low19 °F (Nov 25, 12:30 am)41% (Nov 27, 1:30 pm)29.68 "Hg (Dec 2, 12:00 pm)
Average32 °F90%30.22 "Hg
* Reported Nov 18 11:00 pm — Dec 3 11:30 pm, Pyatigorsk, Weather by CustomWeather, © 2016

Note: Actual official high and low records may vary slightly from our data, if they occured in-between our weather recording intervals... More about our weather records

Advertising

Pyatigorsk Weather History for the Previous 24 Hours

Scroll right to see more
 ConditionsComfort  
Time TempWeatherWind HumidityBarometerVisibility
11:30 pm
Sat, Dec 3
32 °FPassing clouds.8 mph87%30.04 "HgN/A
11:00 pm32 °FPassing clouds.8 mph87%30.04 "HgN/A
10:30 pm30 °FClear.8 mph93%30.01 "HgN/A
10:00 pm32 °FClear.8 mph87%30.01 "HgN/A
9:00 pm34 °FClear.10 mph81%29.98 "HgN/A
8:30 pm34 °FClear.13 mph81%29.98 "HgN/A
8:00 pm34 °FPassing clouds.17 mph87%29.98 "HgN/A
7:30 pm34 °FPassing clouds.20 mph87%29.98 "HgN/A
7:00 pm36 °FClear.20 mph81%29.92 "HgN/A
6:30 pm36 °FClear.13 mph75%29.92 "HgN/A
6:00 pm36 °FClear.8 mph75%29.89 "HgN/A
5:30 pm36 °FClear.8 mph75%29.86 "HgN/A
5:00 pm37 °FClear.8 mph75%29.83 "HgN/A
4:30 pm39 °FClear.6 mph70%29.80 "HgN/A
4:00 pm43 °FClear.6 mph66%29.80 "HgN/A
3:30 pm43 °FClear.6 mph66%29.77 "HgN/A
3:00 pm43 °FClear.8 mph61%29.77 "HgN/A
2:30 pm43 °FClear.8 mph66%29.74 "HgN/A
2:00 pm43 °FClear.6 mph66%29.74 "HgN/A
1:30 pm45 °FClear.3 mph53%29.71 "HgN/A
1:00 pm45 °FClear.8 mph49%29.68 "HgN/A
12:30 pm43 °FClear.13 mph49%29.68 "HgN/A
12:00 pm45 °FClear.15 mph46%29.68 "HgN/A
11:00 am41 °FClear.15 mph57%29.68 "HgN/A
10:30 am39 °FClear.15 mph61%29.68 "HgN/A
10:00 am39 °FClear.17 mph65%29.68 "HgN/A
9:30 am37 °FClear.8 mph75%29.68 "HgN/A
9:00 am32 °FClear.8 mph87%29.68 "HgN/A
8:30 am30 °FClear.No wind86%29.68 "HgN/A
8:00 am27 °FClear.1 mph93%29.68 "HgN/A
7:30 am23 °FClear.1 mph100%29.68 "HgN/A
7:00 am23 °FClear.1 mph93%29.68 "HgN/A
6:30 am23 °FClear.1 mph93%29.68 "HgN/A
6:00 am23 °FClear.No wind93%29.68 "HgN/A
5:00 am21 °FClear.No wind93%29.68 "HgN/A
4:30 am21 °FClear.1 mph93%29.68 "HgN/A
4:00 am21 °FClear.6 mph100%29.68 "Hg6 mi
3:30 am21 °FClear.No wind100%29.71 "Hg6 mi
3:00 am21 °FClear.1 mph100%29.71 "HgN/A
2:30 am23 °FClear.No wind93%29.71 "HgN/A
2:00 am23 °FClear.No wind100%29.71 "HgN/A
1:30 am25 °FClear.1 mph93%29.71 "HgN/A
1:00 am23 °FClear.No wind100%29.71 "HgN/A
12:30 am23 °FClear.No wind100%29.74 "HgN/A
12:00 am27 °FClear.3 mph100%29.74 "HgN/A
Weather by CustomWeather, © 2016

See weather overviewHow to use our weather pages